Track STARLINK-3559 now! 10-day predictions STARLINK-3559 is classified as:
1 51860U 22022J 22187.58334491 .00009686 00000-0 62613-3 0 9995 2 51860 53.2157 274.0572 0001557 66.8742 354.0577 15.08823381 20500